Location: Brachbach
(49.1847°N, 9.7240°E)
Time: 14:25:30
(UTC+00:00)

CZ-2C R/B - Pass Details

Date: 12 August 2024
Orbit: 782 x 869 km, 98.3° (Epoch: 15 September)

Event Time Altitude Azimuth Distance (km) Brightness Sun altitude
Exits shadow 00:11:13 20° 116° (ESE) 1,875 4.3 -25.2°
Maximum altitude 00:14:20 35° 64° (ENE) 1,328 4.0 -25.1°
Drops below altitude 10° 00:19:13 10° 0° (N) 2,449 6.1 -24.9°
Sets 00:21:43 0° 352° (N) 3,373 6.9 -24.8°
